IGO326Y VABB-VOHS

Flight info

Callsign IGO326Y
Flight time 1h 0m
Altitude 39000
Route VEVAK2A PPN W28 PONIP NAMSA6
Aircraft A20N/M-SDE2E3FGHIRWXY/LB1

Departure

Time 2026-04-27 11:29
Airport Chhatrapati Shivaji Maharaj International Airport (VABB)

Arrival

Time 2026-04-27 12:30
Airport Rajiv Gandhi International Airport (VOHS)
Time Latitude Longitude Altitude Speed Heading
2026-04-27 11:16 19.09163 72.85407 34 ft 0 kts 359°
2026-04-27 11:19 19.09153 72.85408 34 ft 2 kts
2026-04-27 11:19 19.09137 72.85407 34 ft 2 kts
2026-04-27 11:19 19.09120 72.85406 30 ft 2 kts
2026-04-27 11:20 19.09104 72.85403 31 ft 2 kts 22°
2026-04-27 11:20 19.09093 72.85391 29 ft 2 kts 80°
2026-04-27 11:20 19.09092 72.85381 29 ft 0 kts 91°
2026-04-27 11:23 19.09092 72.85418 33 ft 10 kts 90°
2026-04-27 11:23 19.09093 72.85509 33 ft 14 kts 89°
2026-04-27 11:23 19.09082 72.85588 32 ft 9 kts 130°
2026-04-27 11:24 19.09032 72.85626 33 ft 9 kts 118°
2026-04-27 11:24 19.09028 72.85691 33 ft 10 kts 88°
2026-04-27 11:24 19.09030 72.85819 34 ft 24 kts 89°
2026-04-27 11:24 19.09033 72.86010 35 ft 27 kts 89°
2026-04-27 11:25 19.09035 72.86201 36 ft 25 kts 88°
2026-04-27 11:25 19.09035 72.86382 38 ft 24 kts 88°
2026-04-27 11:25 19.09039 72.86557 38 ft 24 kts 89°
2026-04-27 11:25 19.09042 72.86731 38 ft 24 kts 89°
2026-04-27 11:26 19.09045 72.86905 37 ft 24 kts 89°
2026-04-27 11:26 19.09047 72.87081 37 ft 24 kts 89°
2026-04-27 11:26 19.09050 72.87258 37 ft 24 kts 89°
2026-04-27 11:26 19.09052 72.87419 37 ft 13 kts 99°
2026-04-27 11:27 19.09025 72.87451 36 ft 5 kts 166°
2026-04-27 11:27 19.09000 72.87452 37 ft 0 kts 179°
2026-04-27 11:27 19.08988 72.87452 37 ft 7 kts 179°
2026-04-27 11:28 19.08907 72.87452 37 ft 15 kts 181°
2026-04-27 11:28 19.08877 72.87418 37 ft 5 kts 269°
2026-04-27 11:28 19.08876 72.87383 38 ft 19 kts 270°
2026-04-27 11:28 19.08879 72.86990 38 ft 87 kts 270°
2026-04-27 11:29 19.08863 72.86136 33 ft 143 kts 269°
2026-04-27 11:29 19.08848 72.85104 580 ft 140 kts 268°
2026-04-27 11:29 19.08838 72.84034 975 ft 153 kts 269°
2026-04-27 11:29 19.08830 72.82891 1474 ft 160 kts 269°
2026-04-27 11:30 19.08815 72.81601 1821 ft 194 kts 270°
2026-04-27 11:30 19.08792 72.80032 2012 ft 232 kts 270°
2026-04-27 11:30 19.08758 72.78238 2418 ft 253 kts 271°
2026-04-27 11:30 19.08716 72.76344 3061 ft 262 kts 271°
2026-04-27 11:31 19.08574 72.74404 3750 ft 268 kts 261°
2026-04-27 11:31 19.07798 72.72574 4448 ft 280 kts 234°
2026-04-27 11:31 19.06838 72.71646 4924 ft 287 kts 214°
2026-04-27 11:31 19.04265 72.71014 5934 ft 294 kts 172°
2026-04-27 11:32 19.02339 72.71704 6735 ft 293 kts 153°
2026-04-27 11:32 19.00543 72.72739 7516 ft 295 kts 149°
2026-04-27 11:32 18.98758 72.73834 8281 ft 298 kts 150°
2026-04-27 11:32 18.97520 72.74474 8809 ft 298 kts 161°
2026-04-27 11:33 18.95546 72.74803 9653 ft 296 kts 179°
2026-04-27 11:33 18.92745 72.74749 10368 ft 312 kts 183°
2026-04-27 11:33 18.91245 72.74675 10584 ft 325 kts 184°
2026-04-27 11:33 18.88971 72.74563 11080 ft 334 kts 183°
2026-04-27 11:34 18.86624 72.74461 11736 ft 339 kts 183°
2026-04-27 11:34 18.83473 72.74345 12673 ft 343 kts 182°
2026-04-27 11:34 18.81864 72.74370 13136 ft 346 kts 173°
2026-04-27 11:34 18.79598 72.75230 13841 ft 350 kts 147°
2026-04-27 11:35 18.77862 72.77038 14489 ft 356 kts 123°
2026-04-27 11:35 18.76968 72.79457 15114 ft 362 kts 99°
2026-04-27 11:35 18.77016 72.82125 15754 ft 368 kts 82°
2026-04-27 11:35 18.77427 72.84804 16388 ft 372 kts 81°
2026-04-27 11:36 18.77792 72.87528 17042 ft 376 kts 83°
2026-04-27 11:36 18.78042 72.90257 17667 ft 380 kts 86°
2026-04-27 11:36 18.78216 72.93103 18245 ft 385 kts 87°
2026-04-27 11:36 18.78352 72.95936 18738 ft 390 kts 87°
2026-04-27 11:37 18.78520 72.98797 19235 ft 394 kts 87°
2026-04-27 11:37 18.78701 73.01682 19735 ft 399 kts 87°
2026-04-27 11:37 18.78883 73.04627 20235 ft 403 kts 87°
2026-04-27 11:37 18.79065 73.07594 20718 ft 408 kts 87°
2026-04-27 11:38 18.79246 73.10600 21200 ft 414 kts 87°
2026-04-27 11:38 18.79427 73.13637 21699 ft 419 kts 87°
2026-04-27 11:38 18.79610 73.16724 22173 ft 424 kts 87°
2026-04-27 11:38 18.79794 73.19853 22660 ft 429 kts 87°
2026-04-27 11:39 18.79979 73.23005 23147 ft 433 kts 87°
2026-04-27 11:39 18.80165 73.26175 23567 ft 438 kts 88°
2026-04-27 11:39 18.80353 73.29396 23952 ft 443 kts 88°
2026-04-27 11:39 18.80543 73.32670 24348 ft 447 kts 88°
2026-04-27 11:40 18.80734 73.35975 24739 ft 452 kts 88°
2026-04-27 11:40 18.80826 73.39293 25123 ft 455 kts 94°
2026-04-27 11:40 18.80330 73.42589 25490 ft 455 kts 109°
2026-04-27 11:40 18.79186 73.45698 25855 ft 455 kts 118°
2026-04-27 11:41 18.77808 73.48677 26222 ft 458 kts 120°
2026-04-27 11:41 18.76365 73.51693 26571 ft 462 kts 120°
2026-04-27 11:41 18.74919 73.54745 26936 ft 465 kts 120°
2026-04-27 11:41 18.73484 73.57821 27273 ft 469 kts 120°
2026-04-27 11:42 18.72052 73.60932 27616 ft 472 kts 120°
2026-04-27 11:42 18.70632 73.64037 27940 ft 476 kts 120°
2026-04-27 11:42 18.69202 73.67180 28272 ft 479 kts 120°
2026-04-27 11:42 18.67752 73.70373 28600 ft 482 kts 120°
2026-04-27 11:43 18.66297 73.73581 28917 ft 486 kts 120°
2026-04-27 11:43 18.64830 73.76815 29245 ft 489 kts 120°
2026-04-27 11:43 18.63355 73.80066 29550 ft 492 kts 120°
2026-04-27 11:43 18.61887 73.83299 29847 ft 495 kts 120°
2026-04-27 11:44 18.60392 73.86591 30119 ft 498 kts 120°
2026-04-27 11:44 18.58896 73.89885 30415 ft 499 kts 120°
2026-04-27 11:44 18.57394 73.93200 30729 ft 501 kts 120°
2026-04-27 11:44 18.55906 73.96521 31024 ft 502 kts 120°
2026-04-27 11:45 18.54429 73.99860 31407 ft 501 kts 120°
2026-04-27 11:45 18.53460 74.02073 31693 ft 500 kts 120°
2026-04-27 11:45 18.51554 74.06466 32265 ft 497 kts 120°
2026-04-27 11:45 18.50122 74.09790 32676 ft 495 kts 120°
2026-04-27 11:46 18.48705 74.13086 33076 ft 494 kts 120°
2026-04-27 11:46 18.47286 74.16386 33467 ft 492 kts 120°
2026-04-27 11:46 18.45876 74.19662 33844 ft 491 kts 120°
2026-04-27 11:46 18.44467 74.22933 34170 ft 490 kts 120°
2026-04-27 11:47 18.43060 74.26193 34482 ft 488 kts 120°
2026-04-27 11:47 18.41656 74.29440 34795 ft 487 kts 121°
2026-04-27 11:47 18.40245 74.32700 35110 ft 486 kts 121°
2026-04-27 11:47 18.38853 74.35910 35398 ft 485 kts 121°
2026-04-27 11:48 18.37450 74.39144 35680 ft 484 kts 121°
2026-04-27 11:48 18.36047 74.42375 35948 ft 483 kts 121°
2026-04-27 11:48 18.34651 74.45588 36219 ft 483 kts 121°
2026-04-27 11:48 18.33255 74.48796 36483 ft 482 kts 121°
2026-04-27 11:49 18.31856 74.52012 36750 ft 481 kts 121°
2026-04-27 11:49 18.30461 74.55215 36999 ft 481 kts 121°
2026-04-27 11:49 18.29068 74.58411 37263 ft 480 kts 121°
2026-04-27 11:49 18.27693 74.61564 37514 ft 479 kts 121°
2026-04-27 11:50 18.26286 74.64790 37747 ft 479 kts 121°
2026-04-27 11:50 18.24915 74.67928 37978 ft 478 kts 121°
2026-04-27 11:50 18.23524 74.71119 38202 ft 478 kts 121°
2026-04-27 11:50 18.22145 74.74298 38423 ft 477 kts 121°
2026-04-27 11:51 18.20765 74.77488 38607 ft 477 kts 121°
2026-04-27 11:51 18.19394 74.80660 38735 ft 478 kts 121°
2026-04-27 11:52 18.15272 74.90180 38762 ft 477 kts 121°
2026-04-27 11:52 18.12512 74.96542 38756 ft 477 kts 121°
2026-04-27 11:53 18.09762 75.02872 38758 ft 477 kts 121°
2026-04-27 11:53 18.06994 75.09236 38754 ft 477 kts 121°
2026-04-27 11:54 18.04226 75.15594 38755 ft 478 kts 121°
2026-04-27 11:54 18.01478 75.21896 38752 ft 478 kts 121°
2026-04-27 11:55 17.98719 75.28219 38754 ft 478 kts 121°
2026-04-27 11:55 17.95936 75.34590 38751 ft 478 kts 121°
2026-04-27 11:56 17.93161 75.40937 38749 ft 478 kts 121°
2026-04-27 11:56 17.90395 75.47256 38753 ft 478 kts 121°
2026-04-27 11:57 17.87608 75.53618 38748 ft 478 kts 121°
2026-04-27 11:57 17.84845 75.59918 38746 ft 478 kts 121°
2026-04-27 11:58 17.82060 75.66260 38750 ft 477 kts 121°
2026-04-27 11:58 17.79280 75.72583 38748 ft 477 kts 121°
2026-04-27 11:59 17.76497 75.78909 38747 ft 477 kts 121°
2026-04-27 11:59 17.73709 75.85238 38747 ft 477 kts 121°
2026-04-27 12:00 17.70943 75.91513 38746 ft 477 kts 121°
2026-04-27 12:00 17.68154 75.97833 38749 ft 477 kts 121°
2026-04-27 12:01 17.65380 76.04156 38747 ft 477 kts 120°
2026-04-27 12:01 17.62593 76.10473 38753 ft 476 kts 121°
2026-04-27 12:02 17.59794 76.16762 38742 ft 476 kts 121°
2026-04-27 12:02 17.56983 76.23056 38753 ft 476 kts 121°
2026-04-27 12:03 17.54185 76.29308 38764 ft 476 kts 121°
2026-04-27 12:03 17.51368 76.35595 38762 ft 476 kts 121°
2026-04-27 12:04 17.48546 76.41884 38769 ft 476 kts 121°
2026-04-27 12:04 17.45736 76.48140 38777 ft 477 kts 121°
2026-04-27 12:05 17.42905 76.54437 38780 ft 477 kts 121°
2026-04-27 12:05 17.40071 76.60734 38787 ft 477 kts 121°
2026-04-27 12:06 17.37247 76.67002 38789 ft 478 kts 121°
2026-04-27 12:06 17.34408 76.73298 38795 ft 478 kts 121°
2026-04-27 12:07 17.31712 76.79653 38793 ft 483 kts 110°
2026-04-27 12:07 17.31139 76.83125 38805 ft 487 kts 97°
2026-04-27 12:07 17.30954 76.86676 38803 ft 488 kts 95°
2026-04-27 12:08 17.30718 76.93788 38803 ft 489 kts 95°
2026-04-27 12:08 17.30419 77.00876 38803 ft 489 kts 95°
2026-04-27 12:09 17.30074 77.08004 38805 ft 490 kts 95°
2026-04-27 12:09 17.29713 77.15147 38572 ft 496 kts 95°
2026-04-27 12:09 17.29527 77.18777 37762 ft 501 kts 95°
2026-04-27 12:10 17.29340 77.22444 36845 ft 507 kts 95°
2026-04-27 12:10 17.29154 77.26103 36054 ft 511 kts 95°
2026-04-27 12:10 17.28965 77.29828 35307 ft 514 kts 95°
2026-04-27 12:10 17.28774 77.33572 34595 ft 515 kts 95°
2026-04-27 12:11 17.28581 77.37328 33904 ft 517 kts 94°
2026-04-27 12:11 17.28387 77.41080 33107 ft 518 kts 94°
2026-04-27 12:11 17.28190 77.44851 32359 ft 517 kts 94°
2026-04-27 12:11 17.27993 77.48616 31743 ft 514 kts 94°
2026-04-27 12:12 17.27799 77.52292 31191 ft 510 kts 94°
2026-04-27 12:12 17.27603 77.55971 30649 ft 505 kts 94°
2026-04-27 12:12 17.27405 77.59639 30124 ft 501 kts 93°
2026-04-27 12:12 17.27209 77.63264 29559 ft 496 kts 93°
2026-04-27 12:13 17.27015 77.66848 29004 ft 491 kts 93°
2026-04-27 12:13 17.26822 77.70402 28460 ft 485 kts 93°
2026-04-27 12:13 17.26626 77.73896 27933 ft 479 kts 95°
2026-04-27 12:13 17.26037 77.77298 27404 ft 473 kts 105°
2026-04-27 12:14 17.25267 77.80597 26900 ft 468 kts 105°
2026-04-27 12:14 17.24498 77.83888 26394 ft 463 kts 104°
2026-04-27 12:14 17.23759 77.87135 25905 ft 458 kts 104°
2026-04-27 12:14 17.23039 77.90387 25398 ft 453 kts 104°
2026-04-27 12:15 17.22344 77.93588 24909 ft 448 kts 104°
2026-04-27 12:15 17.21664 77.96757 24431 ft 444 kts 103°
2026-04-27 12:15 17.20995 77.99891 23949 ft 439 kts 103°
2026-04-27 12:15 17.20346 78.02949 23485 ft 435 kts 103°
2026-04-27 12:16 17.19694 78.06027 22918 ft 431 kts 103°
2026-04-27 12:16 17.19048 78.09072 22354 ft 426 kts 103°
2026-04-27 12:16 17.18412 78.12072 21610 ft 418 kts 103°
2026-04-27 12:16 17.17787 78.15020 20744 ft 412 kts 103°
2026-04-27 12:17 17.17169 78.17923 19923 ft 406 kts 103°
2026-04-27 12:17 17.16561 78.20783 19143 ft 399 kts 103°
2026-04-27 12:17 17.15961 78.23599 18377 ft 393 kts 103°
2026-04-27 12:17 17.15371 78.26368 17520 ft 387 kts 103°
2026-04-27 12:18 17.14796 78.29062 16639 ft 382 kts 102°
2026-04-27 12:18 17.14221 78.31756 15810 ft 376 kts 102°
2026-04-27 12:18 17.13946 78.33561 15409 ft 367 kts 91°
2026-04-27 12:18 17.14093 78.36113 15051 ft 348 kts 85°
2026-04-27 12:19 17.14208 78.38589 14726 ft 331 kts 86°
2026-04-27 12:19 17.14286 78.40960 14185 ft 324 kts 87°
2026-04-27 12:19 17.14350 78.43315 13536 ft 321 kts 87°
2026-04-27 12:19 17.14405 78.45637 12867 ft 318 kts 88°
2026-04-27 12:20 17.14469 78.48611 12460 ft 299 kts 88°
2026-04-27 12:20 17.14511 78.50720 12268 ft 283 kts 88°
2026-04-27 12:20 17.14538 78.52076 12026 ft 279 kts 88°
2026-04-27 12:20 17.14578 78.54108 11415 ft 283 kts 88°
2026-04-27 12:21 17.14621 78.56197 10709 ft 290 kts 88°
2026-04-27 12:21 17.14667 78.58342 10007 ft 295 kts 88°
2026-04-27 12:21 17.14713 78.60496 9273 ft 298 kts 89°
2026-04-27 12:21 17.14755 78.62659 8538 ft 298 kts 89°
2026-04-27 12:22 17.14775 78.64830 7817 ft 298 kts 90°
2026-04-27 12:22 17.14785 78.66974 7188 ft 295 kts 90°
2026-04-27 12:22 17.14793 78.69082 6799 ft 284 kts 89°
2026-04-27 12:22 17.15023 78.71088 6439 ft 273 kts 75°
2026-04-27 12:23 17.15779 78.72860 6067 ft 264 kts 53°
2026-04-27 12:23 17.17076 78.74134 5860 ft 247 kts 29°
2026-04-27 12:23 17.18591 78.74710 5861 ft 220 kts
2026-04-27 12:23 17.20048 78.74689 5855 ft 203 kts 348°
2026-04-27 12:24 17.21361 78.74206 5831 ft 203 kts 329°
2026-04-27 12:24 17.22465 78.73292 5829 ft 202 kts 307°
2026-04-27 12:24 17.23009 78.71972 5838 ft 199 kts 277°
2026-04-27 12:24 17.23141 78.70526 5831 ft 200 kts 279°
2026-04-27 12:25 17.23384 78.69091 5842 ft 200 kts 275°
2026-04-27 12:25 17.23453 78.67639 5842 ft 199 kts 269°
2026-04-27 12:25 17.23422 78.66201 5804 ft 200 kts 267°
2026-04-27 12:25 17.23375 78.64749 5605 ft 200 kts 268°
2026-04-27 12:26 17.23343 78.63298 5330 ft 200 kts 268°
2026-04-27 12:26 17.23315 78.61846 5056 ft 199 kts 268°
2026-04-27 12:26 17.23283 78.60391 4785 ft 199 kts 268°
2026-04-27 12:26 17.23252 78.58942 4540 ft 199 kts 268°
2026-04-27 12:27 17.23220 78.57494 4290 ft 199 kts 268°
2026-04-27 12:27 17.23189 78.56038 4040 ft 200 kts 269°
2026-04-27 12:27 17.23157 78.54585 3792 ft 200 kts 269°
2026-04-27 12:27 17.23126 78.53176 3551 ft 188 kts 269°
2026-04-27 12:28 17.23097 78.51889 3340 ft 172 kts 269°
2026-04-27 12:28 17.23069 78.50680 3129 ft 157 kts 269°
2026-04-27 12:28 17.23044 78.49586 2940 ft 150 kts 269°
2026-04-27 12:28 17.23021 78.48494 2738 ft 148 kts 268°
2026-04-27 12:29 17.22998 78.47437 2537 ft 143 kts 266°
2026-04-27 12:29 17.22975 78.46404 2350 ft 140 kts 265°
2026-04-27 12:29 17.22966 78.45402 2139 ft 135 kts 267°
2026-04-27 12:29 17.22914 78.44432 2051 ft 134 kts 274°
2026-04-27 12:30 17.22901 78.43573 2013 ft 86 kts 265°
2026-04-27 12:30 17.22893 78.43264 2012 ft 7 kts 268°
2026-04-27 12:30 17.22890 78.43189 2011 ft 17 kts 268°
2026-04-27 12:30 17.22921 78.43028 2008 ft 26 kts 291°
2026-04-27 12:31 17.23011 78.42859 2007 ft 27 kts 302°
2026-04-27 12:31 17.23068 78.42765 2007 ft 10 kts 303°
2026-04-27 12:31 17.23138 78.42730 2006 ft 14 kts
2026-04-27 12:31 17.23261 78.42730 2006 ft 21 kts
2026-04-27 12:32 17.23384 78.42733 2004 ft 17 kts 358°
2026-04-27 12:32 17.23446 78.42732 2006 ft 6 kts 360°
2026-04-27 12:32 17.23450 78.42732 2006 ft 0 kts 360°